Home > Weather > Friedrichshafen > Past weeks

Flag for Germany Weather for the Past 2 Weeks in Friedrichshafen, Baden-Württemberg, Germany

Now
57 °F

Scattered clouds.


Feels Like: 56 °F
Forecast: 44 / 57 °F
Wind: 6 mph from West

Location: Friedrichshafen Airport

Current Time: May 2, 2016 at 2:58:28 PM

Latest Report: May 2, 2016 at 2:20 PM


Visibility: N/A

Pressure: 30.15 "Hg

Humidity: 67%

Dew Point: 46 °F

Location of FriedrichshafenLocation

Historic Weather in Friedrichshafen — Graph

°F

Friedrichshafen Temperature Yesterday

Maximum temperature yesterday: 46 °F (at 3:50 PM)
Minimum temperature yesterday: 43 °F (at 4:20 AM)
Average temperature yesterday: 44 °F

High & Low Weather Summary for the Past Weeks

 TemperatureHumidityPressure
High70 °F (Apr 22, 2:50 PM)100% (Apr 22, 3:50 AM)30.33 "Hg (Apr 22, 3:50 AM)
Low28 °F (Apr 28, 5:50 AM)28% (Apr 30, 4:50 PM)29.65 "Hg (Apr 26, 8:20 AM)
Average46 °F73%30.00 "Hg
* Reported Apr 17 1:20 PM — May 2 1:50 PM, Friedrichshafen, Weather by CustomWeather, © 2016

Note: Actual official high and low records may vary slightly from our data, if they occured in-between our weather recording intervals... More about our weather records

Advertising

Friedrichshafen Weather History for the Previous 24 Hours

Scroll right to see more
 ConditionsComfort  
Time TempWeatherWind HumidityBarometerVisibility
1:50 PM
Mon, May 2
55 °FBroken clouds.9 mph72%30.15 "HgN/A
1:20 PM57 °FScattered clouds.3 mph67%30.15 "HgN/A
12:50 PM54 °FPartly sunny.2 mph72%30.15 "HgN/A
12:20 PM54 °FBroken clouds.5 mph72%30.18 "HgN/A
11:50 AM50 °FBroken clouds.7 mph82%30.18 "HgN/A
11:20 AM52 °FMore clouds than sun.5 mph77%30.18 "HgN/A
10:50 AM52 °FPartly sunny.6 mph77%30.18 "HgN/A
10:20 AM50 °FPartly sunny.7 mph82%30.18 "HgN/A
9:50 AM50 °FPartly sunny.9 mph82%30.18 "HgN/A
9:20 AM48 °FPartly sunny.5 mph87%30.18 "HgN/A
8:50 AM46 °FPartly sunny.6 mph93%30.18 "HgN/A
8:20 AM46 °FLow clouds.2 mph93%30.18 "Hg4 mi
6:50 AM45 °FFog.2 mph100%30.18 "Hg2 mi
6:20 AM45 °FLow clouds.2 mph100%30.15 "Hg4 mi
5:50 AM45 °FFog.1 mph100%30.15 "Hg3 mi
5:20 AM45 °FMostly cloudy.2 mph100%30.15 "Hg3 mi
4:50 AM45 °FFog.3 mph100%30.15 "Hg3 mi
4:20 AM45 °FLow clouds.2 mph100%30.15 "Hg4 mi
3:50 AM45 °FMostly cloudy.5 mph100%30.15 "Hg4 mi
3:20 AM45 °FFog.3 mph100%30.15 "Hg2 mi
2:50 AM45 °FMostly cloudy.No wind93%30.15 "Hg3 mi
2:20 AM45 °FSprinkles. Mostly cloudy.2 mph93%30.15 "Hg3 mi
1:50 AM45 °FDrizzle. Mostly cloudy.1 mph93%30.15 "Hg4 mi
1:20 AM45 °FSprinkles. Fog.1 mph93%30.15 "Hg3 mi
12:50 AM45 °FSprinkles. Mostly cloudy.No wind93%30.15 "Hg3 mi
12:20 AM45 °FSprinkles. Low clouds.2 mph93%30.15 "Hg4 mi
11:50 PM
Sun, May 1
45 °FSprinkles. Low clouds.3 mph93%30.18 "Hg4 mi
10:50 PM45 °FSprinkles. Mostly cloudy.2 mph93%30.18 "Hg6 mi
10:20 PM45 °FDrizzle. Mostly cloudy.3 mph93%30.15 "Hg5 mi
9:50 PM45 °FLight rain. Mostly cloudy.3 mph93%30.15 "Hg5 mi
9:20 PM45 °FLight rain. Mostly cloudy.7 mph93%30.15 "Hg4 mi
8:50 PM45 °FLight rain. Cloudy.No wind93%30.12 "HgN/A
8:20 PM45 °FLight rain. Mostly cloudy.2 mph93%30.12 "HgN/A
7:50 PM45 °FLight rain. Mostly cloudy.7 mph93%30.12 "Hg6 mi
7:20 PM45 °FLight rain. More clouds than sun.3 mph93%30.12 "Hg6 mi
6:50 PM45 °FLight rain. Low clouds.5 mph93%30.09 "Hg5 mi
6:20 PM45 °FLight rain. Overcast.5 mph93%30.09 "Hg5 mi
5:50 PM45 °FRain. Low clouds.6 mph93%30.09 "Hg3 mi
5:20 PM45 °FSprinkles. Low clouds.7 mph93%30.09 "Hg5 mi
4:50 PM46 °FLow clouds.9 mph87%30.07 "HgN/A
4:20 PM46 °FOvercast.10 mph87%30.07 "HgN/A
3:50 PM46 °FOvercast.10 mph87%30.07 "HgN/A
3:20 PM45 °FLow clouds.9 mph93%30.07 "HgN/A
2:50 PM45 °FOvercast.10 mph93%30.07 "HgN/A
2:20 PM45 °FLow clouds.8 mph87%30.07 "HgN/A
Weather by CustomWeather, © 2016

See weather overviewHow to use our weather pages